Flag for U.S.A. Weather past 2 weeks in Jacksonville, Florida, U.S.A.

Now
72 °F

Sunny.


Feels Like: 74 °F
Forecast: 62 / 83 °F
Wind: 5 mph from North

Location: Jacksonville Naval Air Station


UV Index: 7 (High)

Visibility: 10 mi


Pressure: 29.92 "Hg

Humidity: 71%

Dew point: 62 °F

Location of JacksonvilleLocation

Historic Weather in Jacksonville

°F

Jacksonville temperature yesterday

Maximum temperature yesterday: 86 °F (at 3:53 PM)
Minimum temperature yesterday: 60 °F (at 4:53 AM)
Average temperature yesterday: 72 °F

Past Weeks' High & Low Weather Summary

 TemperatureHumidityPressure
High86 °F (Apr 22, 3:53 PM)91% (Apr 18, 5:53 PM)30.31 "Hg (Apr 18, 5:53 PM)
Low49 °F (Apr 16, 3:53 AM)26% (Apr 10, 12:53 PM)29.66 "Hg (Apr 8, 5:53 PM)
Average69 °F68%30.04 "Hg
* Reported Apr 8 9:53 AM — Apr 23 9:53 AM, Jacksonville, Weather by CustomWeather, © 2014

Note: Actual official high and low records may vary slightly from our data, if they occured in-between our weather recording intervals... More about our weather records

Advertising

Historic Weather Conditions — Data for Previous 24 hours

 ConditionsComfort  
Time TempWeatherWind HumidityBarometerVisibility
9:53 AM
Apr 23
72 °FSunny.5 mph71%29.92 "Hg10 mi
8:53 AM66 °FPassing clouds.6 mph84%29.91 "Hg10 mi
8:02 AM64 °FScattered clouds.7 mph90%29.92 "Hg10 mi
7:53 AM64 °FLow clouds.3 mph90%29.91 "Hg10 mi
6:53 AM63 °FPassing clouds.6 mph90%29.88 "Hg10 mi
5:53 AM64 °FPartly cloudy.7 mph87%29.87 "Hg10 mi
4:53 AM64 °FPassing clouds.6 mph87%29.86 "Hg10 mi
3:53 AM65 °FPassing clouds.6 mph85%29.86 "Hg10 mi
2:53 AM66 °FPassing clouds.5 mph81%29.86 "Hg10 mi
1:53 AM67 °FClear.9 mph79%29.87 "Hg10 mi
12:53 AM68 °FClear.10 mph73%29.87 "Hg10 mi
11:53 PM
Apr 22
70 °FClear.10 mph68%29.86 "Hg10 mi
10:53 PM72 °FClear.10 mph61%29.87 "Hg10 mi
9:53 PM74 °FClear.9 mph56%29.86 "Hg10 mi
8:53 PM77 °FPassing clouds.7 mph48%29.83 "Hg10 mi
7:53 PM80 °FPassing clouds.7 mph44%29.81 "Hg10 mi
6:53 PM82 °FPassing clouds.14 mph38%29.81 "Hg10 mi
5:53 PM83 °FScattered clouds.13 mph36%29.81 "Hg10 mi
4:53 PM84 °FBroken clouds.10 mph33%29.82 "Hg10 mi
3:53 PM86 °FPassing clouds.13 mph31%29.83 "Hg10 mi
2:53 PM82 °FScattered clouds.3 mph35%29.86 "Hg10 mi
1:53 PM82 °FScattered clouds.10 mph35%29.88 "Hg10 mi
12:53 PM80 °FScattered clouds.7 mph39%29.91 "Hg10 mi
11:53 AM79 °FScattered clouds.8 mph42%29.93 "Hg10 mi
Weather by CustomWeather, © 2014

See weather overview